Date String (YYYY-MM-DD hh:mm:ss) UTC,Instrument flags,Ambient pressure (hPa),Sample flow (lpm),Bypass flow (lpm),Sample temperature (°C),Ambient temperature (°C),ASC tube jacket temperature (°C),LED temperature (°C),Box temperature (°C),Sample RH (%),Span deviation,Mass concentration (μg/m³),Mass concentration (μg/m³),Mass concentration (μg/m³)
DateTimeUTC,F1_M11,P_M11,Q1_M11,Q2_M11,T1_M11,T2_M11,T3_M11,T4_M11,T5_M11,U1_M11,ZSPAN_M11,X0_M11,X2_M11,X1_M11
2021-09-07 21:00:00,,0832.1,5.01,0.00,29.0,27.5,00.0,38.0,30.8,17.1,0001.9,0072.70,0044.58,0041.05
2021-09-07 21:01:00,,0832.1,5.00,0.00,29.1,27.8,00.0,38.1,31.0,17.2,0001.9,0073.75,0044.63,0041.10
2021-09-07 21:02:00,,0832.1,5.00,0.00,29.1,28.1,00.0,38.1,31.1,16.7,0002.0,0073.60,0044.72,0041.15
2021-09-07 21:03:00,,0832.1,5.00,0.00,29.2,28.3,00.0,38.1,31.2,16.9,0001.8,0072.48,0044.70,0041.21
2021-09-07 21:04:00,,0832.0,4.99,0.00,29.3,28.3,00.0,38.1,31.2,16.8,0001.9,0072.10,0044.74,0041.22
2021-09-07 21:05:00,,0832.0,4.99,0.00,29.2,26.8,00.0,38.1,30.8,16.6,0002.0,0071.32,0044.88,0041.26
2021-09-07 21:06:00,,0832.0,5.01,0.00,29.1,25.6,00.0,38.1,30.4,16.8,0001.8,0072.40,0044.96,0041.32
2021-09-07 21:07:00,,0832.0,5.00,0.00,29.0,25.9,00.0,38.1,30.5,16.9,0001.7,0072.77,0045.00,0041.40
2021-09-07 21:08:00,,0832.0,5.00,0.00,29.0,26.4,00.0,38.1,30.6,17.0,0001.7,0073.36,0045.11,0041.45
2021-09-07 21:09:00,,0832.0,5.00,0.00,29.0,26.8,00.0,38.1,30.7,16.9,0001.4,0073.37,0045.10,0041.43
2021-09-07 21:10:00,,0831.9,5.01,0.00,29.0,27.3,00.0,38.1,30.8,16.8,0001.4,0072.52,0045.21,0041.53
2021-09-07 21:11:00,,0832.0,4.99,0.00,29.1,27.6,00.0,38.1,30.9,16.8,0001.1,0072.12,0045.14,0041.52
2021-09-07 21:12:00,,0832.0,5.01,0.00,29.1,27.9,00.0,38.1,31.0,16.7,0000.7,0071.02,0045.04,0041.50
2021-09-07 21:13:00,,0831.9,5.00,0.00,29.2,28.2,00.0,38.1,31.1,16.8,0000.7,0071.36,0044.96,0041.50
2021-09-07 21:14:00,,0831.9,5.00,0.00,29.3,28.3,00.0,38.1,31.2,16.6,0000.9,0071.70,0045.02,0041.50
2021-09-07 21:15:00,,0831.9,5.00,0.00,29.2,26.9,00.0,38.1,30.7,16.7,0000.9,0070.13,0045.06,0041.55
2021-09-07 21:16:00,,0831.9,5.01,0.00,29.0,25.6,00.0,38.1,30.3,16.8,0000.8,0071.28,0045.08,0041.59
2021-09-07 21:17:00,,0831.8,5.00,0.00,29.0,25.8,00.0,38.1,30.4,16.9,0001.1,0070.45,0045.03,0041.54
2021-09-07 21:18:00,,0831.9,4.99,0.00,28.9,26.2,00.0,38.0,30.5,17.1,0001.1,0068.90,0044.96,0041.43
2021-09-07 21:19:00,,0831.8,4.99,0.00,28.9,26.7,00.0,38.0,30.6,17.1,0000.9,0067.85,0044.91,0041.38
2021-09-07 21:20:00,,0831.9,5.01,0.00,29.0,27.1,00.0,38.0,30.7,17.1,0001.2,0067.52,0044.87,0041.35
2021-09-07 21:21:00,,0832.0,4.99,0.00,29.0,27.5,00.0,38.0,30.9,17.0,0001.4,0067.68,0044.75,0041.27
2021-09-07 21:22:00,,0831.9,5.01,0.00,29.1,27.9,00.0,38.0,31.0,17.0,0001.6,0067.11,0044.68,0041.22
2021-09-07 21:23:00,,0831.9,5.00,0.00,29.2,28.1,00.0,38.1,31.1,17.0,0002.1,0068.10,0044.63,0041.17
2021-09-07 21:24:00,,0831.9,4.99,0.00,29.2,28.4,00.0,38.1,31.2,16.8,0002.2,0068.47,0044.56,0041.11
2021-09-07 21:25:00,,0831.8,5.00,0.00,29.3,28.1,00.0,38.1,31.1,16.8,0002.1,0067.76,0044.36,0041.00
2021-09-07 21:26:00,,0831.9,5.01,0.00,29.2,26.4,00.0,38.1,30.6,16.9,0002.3,0068.14,0044.25,0040.92
2021-09-07 21:27:00,,0831.8,4.99,0.00,29.0,25.6,00.0,38.1,30.4,16.7,0002.4,0067.36,0044.08,0040.82
2021-09-07 21:28:00,,0831.7,5.00,0.00,29.0,26.0,00.0,38.1,30.5,16.6,0002.2,0067.54,0044.06,0040.76
2021-09-07 21:29:00,,0831.7,5.01,0.00,29.0,26.5,00.0,38.1,30.6,16.7,0002.1,0068.22,0044.07,0040.76
2021-09-07 21:30:00,,0831.8,5.00,0.00,29.0,26.9,00.0,38.1,30.7,16.8,0002.5,0069.25,0043.98,0040.71
2021-09-07 21:31:00,,0831.7,5.00,0.00,29.0,27.4,00.0,38.0,30.8,17.0,0002.1,0069.16,0043.94,0040.68
2021-09-07 21:32:00,,0831.7,5.00,0.00,29.1,27.7,00.0,38.1,31.0,16.7,0001.7,0068.63,0043.95,0040.67
2021-09-07 21:33:00,,0831.7,4.99,0.00,29.1,28.0,00.0,38.1,31.1,16.5,0001.3,0069.89,0043.98,0040.63
2021-09-07 21:34:00,,0831.8,5.01,0.00,29.2,28.3,00.0,38.1,31.1,16.4,0001.1,0069.15,0043.94,0040.59
2021-09-07 21:35:00,,0831.8,5.00,0.00,29.2,27.4,00.0,38.1,30.9,16.5,0001.1,0068.71,0043.97,0040.62
2021-09-07 21:36:00,,0831.7,5.01,0.00,29.1,25.8,00.0,38.1,30.4,16.6,0001.3,0070.44,0044.05,0040.63
2021-09-07 21:37:00,,0831.7,5.00,0.00,29.0,25.7,00.0,38.1,30.4,16.9,0001.1,0070.19,0044.01,0040.62
2021-09-07 21:38:00,,0831.7,4.98,0.00,28.9,26.1,00.0,38.0,30.5,16.9,0001.1,0070.10,0044.05,0040.65
2021-09-07 21:39:00,,0831.7,5.00,0.00,28.9,26.5,00.0,38.0,30.6,16.8,0001.3,0069.62,0043.99,0040.66
2021-09-07 21:40:00,,0831.7,5.01,0.00,28.9,27.0,00.0,38.0,30.7,16.8,0001.3,0070.61,0043.94,0040.66
2021-09-07 21:41:00,,0831.7,5.00,0.00,29.0,27.4,00.0,38.0,30.8,16.9,0001.2,0070.23,0043.91,0040.62
2021-09-07 21:42:00,,0831.7,5.01,0.00,29.1,27.8,00.0,38.0,30.9,16.8,0001.3,0069.82,0043.89,0040.59
2021-09-07 21:43:00,,0831.7,4.99,0.00,29.1,28.1,00.0,38.1,31.1,16.6,0001.7,0070.02,0043.90,0040.60
2021-09-07 21:44:00,,0831.7,5.02,0.00,29.2,28.3,00.0,38.1,31.2,16.5,0001.7,0068.58,0043.94,0040.62
2021-09-07 21:45:00,,0831.7,5.00,0.00,29.2,27.7,00.0,38.1,31.0,16.5,0001.6,0068.27,0043.93,0040.61
2021-09-07 21:46:00,,0831.7,5.00,0.00,29.1,26.0,00.0,38.1,30.5,16.7,0001.7,0068.61,0043.91,0040.57
2021-09-07 21:47:00,,0831.7,5.01,0.00,29.0,25.7,00.0,38.1,30.4,16.9,0001.4,0067.95,0043.94,0040.61
2021-09-07 21:48:00,,0831.7,4.99,0.00,28.9,26.1,00.0,38.0,30.5,16.6,0001.7,0068.28,0044.06,0040.68
2021-09-07 21:49:00,,0831.7,5.01,0.00,28.9,26.5,00.0,38.0,30.5,16.9,0001.7,0069.01,0044.09,0040.67
2021-09-07 21:50:00,,0831.7,5.01,0.00,28.9,27.0,00.0,38.0,30.7,16.8,0001.3,0069.42,0044.14,0040.72
2021-09-07 21:51:00,,0831.7,4.99,0.00,29.0,27.4,00.0,38.0,30.8,16.6,0001.3,0068.55,0044.18,0040.79
2021-09-07 21:52:00,,0831.7,4.99,0.00,29.0,27.8,00.0,38.0,30.9,16.6,0001.2,0068.62,0044.34,0040.93
2021-09-07 21:53:00,,0831.7,5.01,0.00,29.1,28.1,00.0,38.1,31.0,16.7,0001.0,0069.91,0044.37,0041.00
2021-09-07 21:54:00,,0831.7,5.00,0.00,29.2,28.2,00.0,38.1,31.1,16.5,0000.8,0070.22,0044.44,0041.07
2021-09-07 21:55:00,,0831.7,4.99,0.00,29.2,26.9,00.0,38.1,30.8,16.4,0000.9,0070.73,0044.50,0041.14
2021-09-07 21:56:00,,0831.7,5.01,0.00,29.0,25.6,00.0,38.1,30.4,16.6,0001.0,0070.65,0044.63,0041.26
2021-09-07 21:57:00,,0831.7,4.99,0.00,28.9,25.8,00.0,38.0,30.4,16.7,0001.3,0071.25,0044.72,0041.33
2021-09-07 21:58:00,,0831.7,5.01,0.00,28.9,26.3,00.0,38.0,30.5,17.0,0001.4,0071.30,0044.70,0041.34
2021-09-07 21:59:00,,0831.7,5.00,0.00,28.9,26.7,00.0,38.0,30.6,16.7,0001.4,0071.95,0044.68,0041.34
